This is the latest recevied weather packets stored in our database for station/object K6CED. If no packets are shown the sender has not sent any weather packets the latest 10 day(s).
| Time | Temp. | Humidity | Pressure | Rain* | Wind** | Luminosity | Snow |
|---|---|---|---|---|---|---|---|
| 1778028364 | 16.11° C | 61% | 1016.2 hPa | 0 mm | - | 111 W/m² | - |
| 1778028061 | 16.11° C | 62% | 1016.5 hPa | 0 mm | - | 123 W/m² | - |
| 1778027757 | 16.11° C | 61% | 1016.2 hPa | 0 mm | - | 147 W/m² | - |
| 1778027453 | 16.11° C | 61% | 1016.2 hPa | 0 mm | - | 161 W/m² | - |
| 1778027149 | 16.67° C | 61% | 1016.2 hPa | 0 mm | - | 163 W/m² | - |
| 1778026845 | 16.67° C | 60% | 1016 hPa | 0 mm | - | 321 W/m² | - |
| 1778026542 | 16.67° C | 60% | 1016.1 hPa | 0 mm | - | 328 W/m² | - |
| 1778026239 | 17.22° C | 58% | 1016.3 hPa | 0 mm | - | 346 W/m² | - |
| 1778025937 | 17.22° C | 57% | 1016.2 hPa | 0 mm | - | 341 W/m² | - |
| 1778025634 | 17.22° C | 58% | 1016.1 hPa | 0 mm | - | 369 W/m² | - |
| 1778025332 | 17.78° C | 58% | 1016.1 hPa | 0 mm | - | 502 W/m² | - |
| 1778025028 | 17.22° C | 57% | 1015.9 hPa | 0 mm | - | 491 W/m² | - |
| 1778024725 | 16.67° C | 57% | 1016.2 hPa | 0 mm | - | 510 W/m² | - |
| 1778024422 | 16.11° C | 59% | 1016.1 hPa | 0 mm | - | 143 W/m² | - |
| 1778024120 | 16.11° C | 59% | 1016.1 hPa | 0 mm | - | 150 W/m² | - |
| 1778023817 | 16.11° C | 58% | 1016 hPa | 0 mm | - | 136 W/m² | - |
| 1778023515 | 16.11° C | 58% | 1016.1 hPa | 0 mm | - | 106 W/m² | - |
| 1778023212 | 16.11° C | 57% | 1016.2 hPa | 0 mm | - | 73 W/m² | - |
| 1778022909 | 16.11° C | 56% | 1016.2 hPa | 0 mm | - | 63 W/m² | - |
| 1778022608 | 16.11° C | 56% | 1016.1 hPa | 0 mm | - | 64 W/m² | - |
| 1778022304 | 16.11° C | 55% | 1016 hPa | 0 mm | - | 58 W/m² | - |
| 1778022001 | 16.67° C | 55% | 1016.1 hPa | 0 mm | - | 65 W/m² | - |
| 1778021698 | 16.67° C | 55% | 1016.1 hPa | 0 mm | - | 81 W/m² | - |
| 1778021394 | 16.67° C | 55% | 1016.2 hPa | 0 mm | - | 106 W/m² | - |
| 1778021091 | 16.67° C | 55% | 1016.1 hPa | 0 mm | - | 143 W/m² | - |
* Rain latest hour (hover to see other rain measurements)
** Current wind speed in m/s (hover to see current wind gust speed)